| time (UTC) | temp F | wind direction | speed knots | gust knots | rain 1hr in | rain 24hr in | rain mn in | humidity % | barometer mb |
| 20260505184025 | 85 | 144 | 1.7 | 4.3 | 0.00 | 0.00 | 0.00 | 32 | 1018.9 |
| 20260505183023 | 85 | 161 | 1.7 | 3.5 | 0.00 | 0.00 | 0.00 | 33 | 1018.9 |
| 20260505182020 | 87 | 142 | 1.7 | 2.6 | 0.00 | 0.00 | 0.00 | 33 | 1018.9 |
| 20260505181030 | 88 | 174 | 1.7 | 2.6 | 0.00 | 0.00 | 0.00 | 33 | 1019.2 |
| 20260505180016 | 91 | 106 | 2.6 | 4.3 | 0.00 | 0.00 | 0.00 | 30 | 1019.3 |
| 20260505175031 | 91 | 130 | 2.6 | 5.2 | 0.00 | 0.00 | 0.00 | 31 | 1019.5 |
| 20260505174029 | 90 | 121 | 1.7 | 4.3 | 0.00 | 0.00 | 0.00 | 32 | 1019.6 |
| 20260505173032 | 90 | 249 | 1.7 | 4.3 | 0.00 | 0.00 | 0.00 | 32 | 1019.7 |
| 20260505172017 | 90 | 147 | 1.7 | 3.5 | 0.00 | 0.00 | 0.00 | 31 | 1019.8 |
| 20260505171020 | 89 | 233 | 1.7 | 3.5 | 0.00 | 0.00 | 0.00 | 33 | 1019.7 |
| 20260505170024 | 85 | 132 | 1.7 | 3.5 | 0.00 | 0.00 | 0.00 | 34 | 1019.7 |
| 20260505165027 | 86 | 276 | 1.7 | 3.5 | 0.00 | 0.00 | 0.00 | 34 | 1019.7 |
| 20260505164029 | 84 | 135 | 1.7 | 3.5 | 0.00 | 0.00 | 0.00 | 34 | 1019.9 |
| 20260505163032 | 82 | 115 | 2.6 | 3.5 | 0.00 | 0.00 | 0.00 | 36 | 1019.7 |
| 20260505162018 | 82 | 213 | 1.7 | 2.6 | 0.00 | 0.00 | 0.00 | 37 | 1019.6 |
| 20260505161026 | 82 | 132 | 1.7 | 4.3 | 0.00 | 0.00 | 0.00 | 36 | 1019.7 |
| 20260505153021 | 81 | 69 | 2.6 | 6.1 | 0.00 | 0.00 | 0.00 | 38 | 1019.9 |
| 20260505151027 | 76 | 167 | 1.7 | 2.6 | 0.00 | 0.00 | 0.00 | 44 | 1020.1 |
| 20260505125018 | 50 | 206 | 0.9 | 2.6 | 0.00 | 0.00 | 0.00 | 90 | 1019.9 |
| 20260505124027 | 48 | 0.0 | 0.0 | 0.00 | 0.00 | 0.00 | 92 | 1019.9 | |
| 20260505123024 | 47 | 180 | 0.0 | 0.9 | 0.00 | 0.00 | 0.00 | 92 | 1019.9 |
| 20260505122021 | 46 | 195 | 0.9 | 1.7 | 0.00 | 0.00 | 0.00 | 92 | 1019.8 |
| 20260505121019 | 46 | 0.0 | 0.0 | 0.00 | 0.00 | 0.00 | 92 | 1019.7 | |
| 20260505120016 | 45 | 203 | 0.9 | 1.7 | 0.00 | 0.00 | 0.00 | 93 | 1019.7 |
| 20260505115020 | 44 | 203 | 0.0 | 1.7 | 0.00 | 0.00 | 0.00 | 93 | 1019.6 |
| 20260505114018 | 43 | 0.0 | 0.0 | 0.00 | 0.00 | 0.00 | 92 | 1019.5 | |
| 20260505113032 | 43 | 0.0 | 0.0 | 0.00 | 0.00 | 0.00 | 92 | 1019.6 | |
| 20260505112017 | 43 | 0.0 | 0.0 | 0.00 | 0.00 | 0.00 | 93 | 1019.6 | |
| 20260505111033 | 43 | 0.0 | 0.0 | 0.00 | 0.00 | 0.00 | 92 | 1019.5 | |
| 20260505102026 | 44 | 0.0 | 0.0 | 0.00 | 0.00 | 0.00 | 91 | 1019.4 | |
| 20260505101029 | 44 | 0.0 | 0.0 | 0.00 | 0.00 | 0.00 | 91 | 1019.2 | |
| 20260505100027 | 44 | 0.0 | 0.0 | 0.00 | 0.00 | 0.00 | 91 | 1019.2 | |
| 20260505094016 | 45 | 0.0 | 0.0 | 0.00 | 0.00 | 0.00 | 88 | 1018.9 | |
| 20260505093019 | 45 | 0.0 | 0.0 | 0.00 | 0.00 | 0.00 | 89 | 1018.9 | |
| 20260505092022 | 45 | 0.0 | 0.0 | 0.00 | 0.00 | 0.00 | 89 | 1018.9 | |
| 20260505091025 | 45 | 0.0 | 0.0 | 0.00 | 0.00 | 0.00 | 89 | 1018.9 | |
| 20260505090027 | 45 | 0.0 | 0.0 | 0.00 | 0.00 | 0.00 | 90 | 1018.8 | |
| 20260505085024 | 46 | 0.0 | 0.0 | 0.00 | 0.00 | 0.00 | 91 | 1018.7 | |
| 20260505084022 | 46 | 183 | 0.0 | 2.6 | 0.00 | 0.00 | 0.00 | 91 | 1018.7 |
| 20260505083020 | 46 | 0.0 | 0.0 | 0.00 | 0.00 | 0.00 | 90 | 1018.5 | |
| 20260505082017 | 46 | 0.0 | 0.0 | 0.00 | 0.00 | 0.00 | 89 | 1018.5 | |
| 20260505081034 | 46 | 0.0 | 0.0 | 0.00 | 0.00 | 0.00 | 89 | 1018.4 | |
| 20260505080018 | 46 | 0.0 | 0.0 | 0.00 | 0.00 | 0.00 | 88 | 1018.4 | |
| 20260505075033 | 46 | 0.0 | 0.0 | 0.00 | 0.00 | 0.00 | 89 | 1018.4 | |
| 20260505074130 | 46 | 0.0 | 0.0 | 0.00 | 0.00 | 0.00 | 88 | 1018.4 | |
| 20260505073027 | 47 | 0.0 | 0.0 | 0.00 | 0.00 | 0.00 | 88 | 1018.5 | |
| 20260505072024 | 47 | 0.0 | 0.0 | 0.00 | 0.00 | 0.00 | 88 | 1018.7 | |
| 20260505071021 | 47 | 0.0 | 0.0 | 0.00 | 0.00 | 0.00 | 88 | 1018.6 | |
| 20260505070025 | 48 | 0.0 | 0.0 | 0.00 | 0.00 | 0.00 | 87 | 1018.6 | |
| 20260505065022 | 48 | 0.0 | 0.0 | 0.00 | 0.00 | 0.00 | 87 | 1018.7 | |
| 20260505064025 | 48 | 0.0 | 0.0 | 0.00 | 0.00 | 0.00 | 88 | 1018.9 | |
| 20260505063129 | 48 | 0.0 | 0.0 | 0.00 | 0.00 | 0.00 | 87 | 1018.9 | |
| 20260505062026 | 48 | 0.0 | 0.0 | 0.00 | 0.00 | 0.00 | 87 | 1019.1 | |
| 20260505061029 | 48 | 0.0 | 0.0 | 0.00 | 0.00 | 0.00 | 87 | 1019.1 | |
| 20260505060031 | 49 | 0.0 | 0.0 | 0.00 | 0.00 | 0.00 | 87 | 1019.1 | |
| 20260505055117 | 49 | 0.0 | 0.0 | 0.00 | 0.00 | 0.00 | 86 | 1019.0 | |
| 20260505054020 | 49 | 0.0 | 0.0 | 0.00 | 0.00 | 0.00 | 86 | 1018.9 | |
| 20260505053023 | 49 | 0.0 | 0.0 | 0.00 | 0.00 | 0.00 | 86 | 1018.9 | |
| 20260505052025 | 50 | 0.0 | 0.0 | 0.00 | 0.00 | 0.00 | 86 | 1018.9 | |
| 20260505051023 | 50 | 0.0 | 0.0 | 0.00 | 0.00 | 0.00 | 86 | 1019.1 | |
| 20260505041025 | 51 | 0.0 | 0.0 | 0.00 | 0.00 | 0.00 | 81 | 1018.9 | |
| 20260505040028 | 52 | 0.0 | 0.0 | 0.00 | 0.00 | 0.00 | 80 | 1019.1 | |
| 20260505035026 | 52 | 0.0 | 0.0 | 0.00 | 0.00 | 0.00 | 79 | 1019.2 | |
| 20260505033121 | 53 | 0.0 | 0.0 | 0.00 | 0.00 | 0.00 | 75 | 1019.4 | |
| 20260505032019 | 54 | 0.0 | 0.0 | 0.00 | 0.00 | 0.00 | 75 | 1019.4 | |
| 20260505031016 | 54 | 0.0 | 0.0 | 0.00 | 0.00 | 0.00 | 74 | 1019.3 | |
| 20260505030032 | 55 | 0.0 | 0.0 | 0.00 | 0.00 | 0.00 | 74 | 1019.2 | |
| 20260505025017 | 56 | 0.0 | 0.0 | 0.00 | 0.00 | 0.00 | 71 | 1019.2 | |
| 20260505024020 | 56 | 0.0 | 0.0 | 0.00 | 0.00 | 0.00 | 69 | 1019.2 | |
| 20260505023024 | 56 | 0.0 | 0.0 | 0.00 | 0.00 | 0.00 | 69 | 1019.2 | |
| 20260505022027 | 57 | 0.0 | 0.0 | 0.00 | 0.00 | 0.00 | 67 | 1018.9 | |
| 20260505021029 | 57 | 192 | 0.9 | 1.7 | 0.00 | 0.00 | 0.00 | 67 | 1018.9 |
| 20260505020032 | 57 | 203 | 0.0 | 1.7 | 0.00 | 0.00 | 0.00 | 68 | 1018.9 |
| 20260505015017 | 58 | 0.0 | 0.9 | 0.00 | 0.00 | 0.00 | 67 | 1018.9 | |
| 20260505014027 | 58 | 0.0 | 0.0 | 0.00 | 0.00 | 0.00 | 65 | 1018.7 | |
| 20260505013024 | 58 | 173 | 0.0 | 1.7 | 0.00 | 0.00 | 0.00 | 64 | 1018.5 |
| 20260505012022 | 59 | 0.0 | 0.0 | 0.00 | 0.00 | 0.00 | 63 | 1018.4 | |
| 20260505011019 | 60 | 0.0 | 0.0 | 0.00 | 0.00 | 0.00 | 61 | 1018.4 | |
| 20260505010016 | 60 | 0.0 | 0.0 | 0.00 | 0.00 | 0.00 | 62 | 1018.4 | |
| 20260505005019 | 61 | 0.0 | 0.0 | 0.00 | 0.00 | 0.00 | 60 | 1018.4 | |
| 20260505004017 | 62 | 0.0 | 0.0 | 0.00 | 0.00 | 0.00 | 59 | 1018.3 | |
| 20260505003114 | 63 | 0.0 | 0.0 | 0.00 | 0.00 | 0.00 | 57 | 1018.2 | |
| 20260505002029 | 64 | 180 | 0.0 | 0.9 | 0.00 | 0.00 | 0.00 | 56 | 1018.1 |
| 20260505001032 | 64 | 158 | 0.0 | 1.7 | 0.00 | 0.00 | 0.00 | 55 | 1018.1 |
| 20260504235032 | 66 | 0.0 | 0.9 | 0.00 | 0.00 | 0.00 | 54 | 1017.9 | |
| 20260504232018 | 69 | 203 | 0.9 | 2.6 | 0.00 | 0.00 | 0.00 | 50 | 1017.7 |
| 20260504231021 | 70 | 0.0 | 0.0 | 0.00 | 0.00 | 0.00 | 50 | 1017.6 | |
| 20260504230025 | 70 | 114 | 0.9 | 2.6 | 0.00 | 0.00 | 0.00 | 49 | 1017.6 |
| 20260504225127 | 71 | 170 | 1.7 | 2.6 | 0.00 | 0.00 | 0.00 | 47 | 1017.6 |
| 20260504224030 | 72 | 136 | 1.7 | 2.6 | 0.00 | 0.00 | 0.00 | 45 | 1017.6 |
| 20260504223015 | 72 | 236 | 1.7 | 4.3 | 0.00 | 0.00 | 0.00 | 46 | 1017.5 |
| 20260504222018 | 73 | 41 | 0.9 | 1.7 | 0.00 | 0.00 | 0.00 | 46 | 1017.6 |
| 20260504221027 | 74 | 60 | 0.9 | 3.5 | 0.00 | 0.00 | 0.00 | 43 | 1017.6 |
| 20260504220024 | 75 | 128 | 0.9 | 2.6 | 0.00 | 0.00 | 0.00 | 41 | 1017.5 |
| 20260504215021 | 76 | 210 | 0.9 | 2.6 | 0.00 | 0.00 | 0.00 | 41 | 1017.5 |
| 20260504213015 | 77 | 101 | 3.5 | 5.2 | 0.00 | 0.00 | 0.00 | 37 | 1017.5 |
| 20260504212018 | 79 | 90 | 2.6 | 4.3 | 0.00 | 0.00 | 0.00 | 36 | 1017.3 |
| 20260504211115 | 81 | 113 | 1.7 | 3.5 | 0.00 | 0.00 | 0.00 | 34 | 1017.3 |
| 20260504210034 | 84 | 142 | 2.6 | 4.3 | 0.00 | 0.00 | 0.00 | 32 | 1017.4 |
| 20260504205016 | 86 | 157 | 1.7 | 2.6 | 0.00 | 0.00 | 0.00 | 31 | 1017.5 |
| 20260504204032 | 87 | 67 | 3.5 | 5.2 | 0.00 | 0.00 | 0.00 | 30 | 1017.5 |
| 20260504203029 | 86 | 173 | 3.5 | 5.2 | 0.00 | 0.00 | 0.00 | 28 | 1017.6 |
| 20260504202033 | 87 | 285 | 3.5 | 6.1 | 0.00 | 0.00 | 0.00 | 27 | 1017.7 |
| 20260504201031 | 87 | 171 | 3.5 | 6.1 | 0.00 | 0.00 | 0.00 | 26 | 1017.8 |
| 20260504200018 | 87 | 120 | 2.6 | 5.2 | 0.00 | 0.00 | 0.00 | 25 | 1017.8 |
| 20260504195032 | 86 | 55 | 3.5 | 6.1 | 0.00 | 0.00 | 0.00 | 25 | 1017.8 |
| 20260504194030 | 87 | 275 | 3.5 | 6.1 | 0.00 | 0.00 | 0.00 | 25 | 1018.0 |
| 20260504193028 | 89 | 130 | 3.5 | 6.1 | 0.00 | 0.00 | 0.00 | 23 | 1018.1 |
| 20260504192111 | 90 | 119 | 2.6 | 5.2 | 0.00 | 0.00 | 0.00 | 23 | 1018.2 |
| 20260504191017 | 91 | 244 | 2.6 | 4.3 | 0.00 | 0.00 | 0.00 | 22 | 1018.3 |
| 20260504190020 | 92 | 100 | 2.6 | 4.3 | 0.00 | 0.00 | 0.00 | 23 | 1018.4 |
| 20260504185022 | 94 | 80 | 3.5 | 7.0 | 0.00 | 0.00 | 0.00 | 22 | 1018.4 |